Epoch 2006 Sept. 22.0 TT = JDT 2454000.5 T 2006 Sept. 11.73109 TT MPC q 4.9480872 (2000.0) P Q z -0.0000493 Peri. 335.51200 -0.75714070 -0.51135452 +/-0.0000118 Node 154.28880 +0.63640047 -0.43695515 e 1.0002439 Incl. 69.55806 -0.14741916 +0.73999105 From 131 observations 2006 Dec. 16-2007 Apr. 15, mean residual 0".6.
m1 = 8.5 + 5 logΔ + 10.0 log r